Weather History for Billings, MT

Change the Weather History Date:

Saturday, January 19, 2013

  Actual Average Record
Temperature  
Mean Temperature 32 °F 27 °F  
Max Temperature 42 °F 37 °F 65 °F (1986)
Min Temperature 22 °F 18 °F -26 °F (1963)
Degree Days  
Heating Degree Days 33 38  
Month to date heating degree days 701 729  
Since 1 July heating degree days 3242 3550  
Cooling Degree Days 0 0  
Month to date cooling degree days 0 0  
Year to date cooling degree days 0 0  
Moisture  
Dew Point 19 °F    
Average Humidity 61    
Maximum Humidity 88    
Minimum Humidity 33    
Precipitation  
Precipitation 0.00 in 0.01 in 0.22 in (1991)
Month to date precipitation 0.39 0.29  
Year to date precipitation 0.39 0.29  
Snow  
Snow 0.00 in 0.30 in 3.00 in (2008)
Month to date snowfall 7.4 5.4  
Since 1 July snowfall 23.7 25.3  
Snow Depth 0.00 in    
Sea Level Pressure  
Sea Level Pressure 30.19 in    
Wind  
Wind Speed 10 mph (West)    
Max Wind Speed 20 mph    
Max Gust Speed 22 mph    
Visibility 10 miles    
Events      
T = Trace of Precipitation, MM = Missing Value Source: NWS Daily Summary

Daily Weather History Graph

Daily Weather History Graph

Search for Another Location

Airport:

Trip Planner

Search our weather history database for the weather conditions in past years. The results will help you decide how hot, cold, wet, or windy it might be!

Date:

Astronomy

Jan. 19, 2013 Rise Set
Actual Time 7:48 AM MST 5:01 PM MST
Civil Twilight 7:15 AM MST 5:34 PM MST
Nautical Twilight 6:38 AM MST 6:11 PM MST
Astronomical Twilight 6:03 AM MST 6:47 PM MST
Moon 11:33 AM MST (1/19) 1:21 AM MST (1/19)
Length of Visible Light 10h 19m
Length of Day
9h 13m
First Quarter, 58% of the Moon is Illuminated
Jan 19
First Quarter
Jan 26
Full
Feb 3
Last Quarter
Feb 10
New
Feb 17
First Quarter

Hourly Weather History & Observations

Time (MST) Temp. Windchill Dew Point Humidity Pressure Visibility Wind Dir Wind Speed Gust Speed Precip Events Conditions
12:53 AM 39.9 °F 32.1 °F 16.0 °F 38% 30.05 in 10.0 mi West 13.8 mph - N/A   Clear
1:53 AM 41.0 °F 33.5 °F 15.1 °F 35% 30.04 in 10.0 mi WSW 13.8 mph - N/A   Clear
2:53 AM 39.0 °F 32.3 °F 15.1 °F 38% 30.09 in 10.0 mi WSW 10.4 mph - N/A   Clear
3:53 AM 39.0 °F 32.8 °F 14.0 °F 36% 30.12 in 10.0 mi SW 9.2 mph - N/A   Clear
4:53 AM 35.6 °F 27.1 °F 15.8 °F 44% 30.09 in 10.0 mi WSW 12.7 mph - N/A   Clear
5:53 AM 37.0 °F 28.1 °F 14.0 °F 39% 30.14 in 10.0 mi WSW 15.0 mph - N/A   Clear
6:53 AM 34.0 °F 23.8 °F 14.0 °F 44% 30.16 in 10.0 mi WSW 16.1 mph - N/A   Clear
7:53 AM 33.1 °F 22.6 °F 14.0 °F 46% 30.19 in 10.0 mi WSW 16.1 mph - N/A   Clear
8:53 AM 34.0 °F 28.0 °F 16.0 °F 48% 30.23 in 10.0 mi NNW 6.9 mph - N/A   Clear
9:53 AM 35.1 °F 28.6 °F 17.1 °F 48% 30.29 in 10.0 mi ENE 8.1 mph - N/A   Clear
10:53 AM 37.9 °F 30.0 °F 23.0 °F 55% 30.30 in 10.0 mi ENE 12.7 mph - N/A   Clear
11:53 AM 37.0 °F 29.3 °F 23.0 °F 57% 30.28 in 10.0 mi East 11.5 mph - N/A   Clear
12:53 PM 37.9 °F 30.9 °F 24.1 °F 57% 30.27 in 10.0 mi ENE 10.4 mph - N/A   Clear
1:53 PM 36.0 °F 28.0 °F 25.0 °F 64% 30.26 in 10.0 mi ENE 11.5 mph - N/A   Clear
2:53 PM 35.1 °F 27.9 °F 25.0 °F 67% 30.26 in 10.0 mi ENE 9.2 mph - N/A   Scattered Clouds
3:53 PM 33.1 °F 26.1 °F 25.0 °F 72% 30.25 in 10.0 mi ENE 8.1 mph - N/A   Partly Cloudy
4:53 PM 30.9 °F 24.3 °F 24.1 °F 76% 30.25 in 10.0 mi NE 6.9 mph - N/A   Partly Cloudy
5:53 PM 28.9 °F - 23.0 °F 78% 30.23 in 10.0 mi Calm Calm - N/A   Partly Cloudy
6:53 PM 25.0 °F - 21.0 °F 85% 30.22 in 10.0 mi Calm Calm - N/A   Partly Cloudy
7:53 PM 23.0 °F 18.4 °F 19.9 °F 88% 30.21 in 10.0 mi West 3.5 mph - N/A   Clear
8:53 PM 24.1 °F 18.2 °F 19.9 °F 84% 30.20 in 10.0 mi NE 4.6 mph - N/A   Clear
9:53 PM 28.0 °F 17.5 °F 21.9 °F 78% 30.17 in 10.0 mi SW 12.7 mph - N/A   Clear
10:53 PM 30.0 °F 19.1 °F 19.9 °F 66% 30.16 in 10.0 mi WSW 15.0 mph - N/A   Clear
11:53 PM 33.1 °F 22.6 °F 18.0 °F 54% 30.16 in 10.0 mi WSW 16.1 mph - N/A   Clear